www.pogodaiklimat.ru

Погода и климат >> Архив погоды >> Россия >> Чукотка >> Чаун


ПОГОДА в Чауне

  • Прогноз погоды в Чауне
  • Монитор погоды в Чауне
  • Климат города

АРХИВ ПОГОДЫ в Чауне

Время (UTC), дата Ветер
(напр.,м/с)
 
Видим.   Явления Облачность Т
(С)
Тd
(С)
f
(%)
Тe
(С)
Тes
(С)
Комфортность P
(гПа)
Po
(гПа)
Тmin
(С)
Tmax
(С)
R
(мм)
R24
(мм)
S
(см)
00 11.08 С 12-15
{19}
20 км {ливн. осадки} 10/6 200 м
[St Ac und]
+6.3 +4.0 85 -0 -0 1012.2 1011.6 +6.3
03 11.08 СЗ 12-15
{16}
20 км 9/4 200 м
[St Ac trans]
+6.5 +1.5 70 0 0 1015.3 1014.7
06 11.08 С 11-15
{16}
20 км 9/3 200 м
[St Ac trans]
+5.8 +1.8 75 -0 -0 1017.6 1017.0
09 11.08 СЗ 10-13
{15}
20 км 9/3 200 м
[St Ac trans]
+4.5 +1.4 80 -2 -2 1019.7 1019.1 +8.2
12 11.08 СЗ 9-11
{13}
20 км 9/3 200 м
[St Ac trans]
+3.6 +1.0 83 -3 -3 1020.9 1020.3
15 11.08 С 5
{13}
20 км 9/3 200 м
[St Ac trans]
+3.2 +1.7 90 -2 -2 1021.4 1020.8
18 11.08 С 3
{10}
4000 м слабый дождь 10/3 200 м
[Frnb As op]
+3.3 +2.0 91 -1 -1 1022.1 1021.5
21 11.08 С 4
{7}
20 км {дождь} 9/3 200 м
[St Ac trans]
+5.7 +2.5 80 +2 +3 1022.1 1021.5 +2.7 0.4
00 12.08 СЗ 5
{7}
20 км {дождь} 9/3 200 м
[St Ac trans]
+5.9 +2.7 80 +2 +3 1021.5 1020.9
03 12.08 СЗ 3
{7}
20 км 8/1 200 м
[St Ac trans]
+6.9 +2.0 71 +4 +6 1020.7 1020.1
06 12.08 С 2
{5}
50 км 4/0
[Ac trans]
+6.9 +1.4 68 +5 +6 1019.9 1019.3
09 12.08 С 3
{4}
50 км 6/0
[Ac trans]
+4.5 +2.0 84 +1 +1 1019.5 1018.9 +7.2 0.4
12 12.08 СВ 2
{3}
50 км 4/0
[Ac lent]
+4.0 +2.5 90 +1 +1 1019.4 1018.8
15 12.08 В 3
{4}
50 км 4/0
[Ac lent]
+1.4 +0.3 92 -3 -3 1019.3 1018.7
18 12.08 В 4
{7}
50 км 4/0
[Ac lent]
+3.0 +1.7 91 -2 -2 1019.9 1019.3
21 12.08 В 5
{8}
50 км ясно +7.3 +1.9 69 +4 +6 1020.5 1019.9 +1.1
00 13.08 СВ 4
{7}
50 км 1/1 600 м
[Cu hum]
+9.8 -0.5 49 +8 +12 1020.8 1020.2
03 13.08 С 5
{8}
50 км 1/0
[Ac lent]
+10.7 +1.1 51 +8 +11 1020.6 1020.0
06 13.08 СВ 5
{7}
50 км ясно +10.6 -0.7 45 +8 +9 1020.9 1020.3
09 13.08 В 4
{8}
50 км 3/0
[Ac lent]
+6.8 +2.7 75 +3 +3 1022.1 1021.5 +11.2
12 13.08 В 4
{6}
50 км 4/0
[Ac lent]
+3.0 +0.1 81 -2 -2 1022.7 1022.1
15 13.08 ЮВ 2
{6}
50 км 3/0
[Ac lent]
+0.6 -0.8 90 -3 -3 1022.7 1022.1
18 13.08 В 2
{4}
50 км ясно +2.4 +0.8 89 -1 -0 1023.0 1022.4
21 13.08 ЮВ 4
{6}
50 км ясно +7.1 +0.4 62 +4 +7 1022.7 1022.1 +0.2
00 14.08 Ю 4
{6}
50 км ясно +11.0 +1.9 53 +9 +14 1021.6 1021.0
03 14.08 ЮВ 4
{7}
50 км ясно +14.4 +0.2 38 +13 +17 1019.8 1019.2
06 14.08 ЮВ 4
{6}
50 км ясно +15.4 +1.5 39 +15 +16 1018.6 1018.0
09 14.08 ЮВ 3
{6}
50 км ясно +9.0 +5.5 79 +7 +7 1018.2 1017.6 +15.5
12 14.08 ЮВ 3
{4}
50 км 4/0
[Ac lent]
+5.3 +3.9 91 +2 +2 1017.9 1017.3
15 14.08 ЮВ 4
{6}
50 км 6/0
[Ac lent]
+4.0 +2.8 92 -1 -1 1017.0 1016.4
18 14.08 Ю 3
{6}
50 км 4/0
[Ac lent]
+4.0 +3.0 93 0 0 1017.0 1016.4
21 14.08 З 1
{5}
50 км 6/0
[Ac lent]
+9.3 +5.1 75 +9 +11 1016.9 1016.3 +2.8
00 15.08 Ю 1
{3}
20 км 9/0
[Ac trans]
+12.6 +4.3 57 +13 +17 1015.5 1014.9
03 15.08 В 1
{2}
4000 м слабый дождь 10/3 200 м
[Frnb As op]
+11.0 +9.0 87 +11 +12 1014.8 1014.2
06 15.08 З 5
{8}
4000 м слабый дождь 10/3 200 м
[Frnb As op]
+11.7 +10.7 94 +9 +9 1014.8 1014.2
09 15.08 СЗ 6
{11}
4000 м слабый дождь 10/3 200 м
[Frnb As op]
+8.8 +7.7 93 +5 +5 1014.9 1014.3 +13.5 1
12 15.08 СЗ 5
{10}
20 км {дождь} 10/3 200 м
[St Ac und]
+8.0 +6.5 90 +4 +4 1014.5 1013.9
15 15.08 З 3
{8}
20 км 10/3 200 м
[St Ac und]
+7.8 +6.5 91 +5 +5 1013.4 1012.8
18 15.08 СЗ 2
{5}
4000 м слабый дождь 10/3 200 м
[Frnb As op]
+7.6 +6.7 94 +5 +5 1012.4 1011.8
21 15.08 СЗ 2
{5}
4000 м слабый дождь 10/3 200 м
[Frnb As op]
+7.6 +7.0 96 +5 +6 1011.0 1010.4 +7.3 0.7
00 16.08 С 2
{4}
20 км {дождь} 10/4 200 м
[St Ac und]
+7.8 +7.0 95 +6 +7 1008.6 1008.0
03 16.08 СВ 2
{4}
4000 м слабый дождь 10/6 210 м
[Frnb As op]
+7.4 +6.7 95 +5 +6 1006.6 1006.0
06 16.08 СВ 1
{3}
4000 м слабый дождь 10/6 210 м
[Frnb As op]
+7.4 +6.7 95 +6 +6 1005.1 1004.5
09 16.08 В 1
{2}
4000 м слабый дождь 10/6 210 м
[Frnb As op]
+6.9 +6.2 95 +6 +6 1003.9 1003.3 +8.0 1
12 16.08 С 2
{7}
4000 м слабый дождь 10/6 200 м
[Frnb As op]
+6.7 +6.0 95 +4 +4 1002.1 1001.5
15 16.08 С 4
{6}
20 км {дождь} 9/4 200 м
[St Ac trans]
+6.2 +4.3 88 +2 +2 1000.8 1000.2
18 16.08 СЗ 7
{10}
50 км {дождь} 9/4 200 м
[St Ac trans]
+5.8 +3.7 86 +1 +1 1001.3 1000.7
21 16.08 СЗ 9-12
{13}
20 км 9/9 240 м
[St]
+4.4 +2.9 90 -2 -2 1002.7 1002.1 +4.4 0.5
00 17.08 СЗ 9-11
{12}
20 км 9/9 200 м
[Sc]
+5.1 +2.1 81 -1 -1 1004.1 1003.5
03 17.08 СЗ 9-11
{13}
20 км 9/9 200 м
[Sc]
+5.0 +2.5 84 -1 -1 1005.0 1004.4
06 17.08 СЗ 9-11
{12}
20 км 9/9 200 м
[Sc]
+5.1 +2.7 84 -1 -1 1006.4 1005.8
09 17.08 СЗ 6
{11}
20 км 9/9 200 м
[Sc]
+4.7 +2.5 86 -1 -1 1007.7 1007.1 +5.6
12 17.08 СЗ 5
{10}
20 км 9/9 200 м
[Sc]
+4.2 +3.0 92 -1 -1 1008.3 1007.7
15 17.08 СЗ 6
{9}
20 км 9/9 200 м
[Sc]
+4.4 +3.4 93 -1 -1 1008.7 1008.1
18 17.08 З 8-10
{12}
20 км {ливн. осадки} 10/10 210 м
[St]
+5.1 +4.4 95 -1 -1 1009.1 1008.5
21 17.08 СЗ 10-13
{14}
20 км 10/10 210 м
[St]
+5.2 +3.8 91 -1 -1 1010.0 1009.4 +4.2 0.4

 

Местоположение метеостанции Чаун (Чукотка, Россия): широта 68.88 долгота 170.70 высота над уровнем моря 5 м.

В архиве по умолчанию представлена погода в Чауне за последнюю неделю. Архивные данные за месяц целиком и за предыдущие месяцы, начиная с января 2011 года, Вы можете получить, выбрав интересующий диапазон дат из раскрывающегося списка и нажав кнопку "Ввод!".

Внимание! Время в таблицах - всемирное. Для получения местного времени необходимо прибавить поправку, которая в Чауне равна 12 ч.

Смотрите также архив погоды в соседних городах и на ближайших метеорологических станциях:

Погода в 21 км (Чукотка, Россия) (84 км)
Погода в Комсомольской (Чукотка, Россия) (89 км)
Погода в Певеке (Чукотка, Россия) (93 км)
Погода в Майской (Чукотка, Россия) (117 км)
Погода в Валькаркае (Чукотка, Россия) (134 км)
Погода в Паляваам-Глубокой (Чукотка, Россия) (137 км)
Погода на Айон Острове (Чукотка, Россия) (160 км)
Погода в Раучуе (Чукотка, Россия) (180 км)
Погода в Билибино (Чукотка, Россия) (198 км)
Погода в Илирнее (Чукотка, Россия) (215 км)

Пояснения к столбцам:

Ветер - указаны скорость ветра в м/с - средняя за 10 мин, порывы в срок и между сроками (в фигурных скобках) и направление, откуда дует ветер: С - северный, СВ - северо-восточный, В - восточный, ЮВ - юго-восточный, Ю - южный, ЮЗ - юго-западный, З - западный, СЗ - северо-западный.
Видимость - горизонтальная дальность видимости в метрах или километрах. При видимости от 1 до 10 км при отсутствии осадков обычно наблюдается дымка, при ухудшении видимости до 1 км и менее - туман. В сухую погоду видимость может ухудшаться дымом, пылью или мглою.
Явления - указаны атмосферные явления, наблюдавшиеся в срок или в последний час перед сроком; фигурными скобками обозначены явления, наблюдавшиеся между сроками (за 1-3 часа до срока); квадратными скобками обозначены град или гололедные отложения с указанием их диаметра в мм.
Облачность - указаны через наклонную черту общая и нижняя облачность в баллах и высота нижней границы облаков в метрах; квадратными скобками обозначены формы облаков: Ci - перистые, Cs - перисто-слоистые, Cc - перисто-кучевые, Ac - высококучевые, As - высокослоистые, Sc - слоисто-кучевые, Ns - слоисто-дождевые, Cu - кучевые, Cb - кучево-дождевые. Подробнее классификацию облаков см. в Атласе облаков (PDF).
T - Температура воздуха - температура, измеренная на высоте 2 м над землей.
Td - Температура точки росы - температура, при понижении до которой содержащийся в воздухе водяной пар достигнет насыщения.
f - Относительная влажность воздуха - влажноcть воздуха, измеренная на высоте 2 м над землей.
Te - Эффективная температура - температура, которую ощущает одетый по сезону человек в тени. Характеристика душности погоды. При расчете учитывается влияние влажности воздуха и скорости ветра на теплоощущения человека.
Tes - Эффективная температура на солнце - температура, которую ощущает человек, с поправкой на солнечный нагрев. Характеристика знойности погоды. Зависит от высоты солнца над горизонтом, облачности и скорости ветра. Ночью, в пасмурную погоду, а также при ветре 12 м/с и более поправка равна нулю.
P - Атмосферное давление - приведенное к уровню моря атмосферное давление.
Po - Атмосферное давление - измеренное на уровне метеостанции атмосферное давление.
Tmin - Минимальная температура - минимум температуры воздуха на высоте 2 м над землей.
Tmax - Максимальная температура - максимум температуры воздуха на высоте 2 м над землей.
R - Количество осадков - Количество выпавших осадков за период времени, мм. При наведении курсора мыши на число - период времени, за который выпало указанное количество осадков.
R24 - Количество осадков - Количество выпавших осадков за 24 часа, мм.
S - Снежный покров - Высота снежного покрова, см. При наведении курсора мыши на число - состояние снежного покрова и степень покрытия местности в баллах.